Location: San Antonio
(29.4240°N, 98.4930°W)
Time: 04:54:06
(UTC-05:00)

Courier 1B - Pass Details

Date: 16 July 2024
Orbit: 962 x 1208 km, 28.3° (Epoch: 15 June)

Event Time Altitude Azimuth Distance (km) Brightness Sun altitude
Rises 20:23:39 0° 277° (W) 3,828 12.5 1.4°
Reaches altitude 10° 20:26:30 10° 272° (W) 2,836 11.4 0.8°
Maximum altitude 20:33:06 51° 199° (SSW) 1,238 8.1 -0.5°
Drops below altitude 10° 20:39:23 10° 125° (SE) 2,704 9.2 -1.7°
Enters shadow 20:41:25 - 121° (ESE) 3,406 9.6 -2.1°
Sets 20:42:04 0° 120° (ESE) 3,636 - -2.3°
